GW5416 Weather Reports


time (UTC)temp
C
wind
direction
speed
KPH
gust
KPH
rain 1hr
cm
rain 24hr
cm
rain mn
cm
humidity
%
barometer
mb
20260503180356 13 323 3.2 6.4 0.00 0.00 0.00 74 1012.7
20260503175716 13 50 3.2 0.0 0.00 0.00 0.00 73 1012.7
20260503174818 13 31 3.2 6.4 0.00 0.00 0.00 72 1012.7
20260503174138 13 103 3.2 6.4 0.00 0.00 0.00 69 1012.3
20260503173458 13 347 1.6 6.4 0.00 0.00 0.00 68 1012.3
20260503172818 13 336 1.6 9.7 0.00 0.00 0.00 70 1012.3
20260503172138 13 31 3.2 9.7 0.00 0.00 0.00 69 1012.3
20260503171458 13 64 3.2 9.7 0.00 0.00 0.00 69 1012.3
20260503170818 13 72 1.6 6.4 0.00 0.00 0.00 67 1012.3
20260503170138 13 40 1.6 6.4 0.00 0.00 0.00 67 1012.3
20260503150913 11 70 1.6 4.8 0.00 0.00 0.00 78 1011.6
20260503150232 11 62 1.6 6.4 0.00 0.00 0.00 79 1011.6
20260503131225 10 72 1.6 6.4 0.00 0.00 0.00 82 1010.2
20260503130545 10 77 1.6 6.4 0.00 0.00 0.00 82 1010.2
20260503110439 10 62 1.6 8.0 0.00 0.00 0.00 81 1010.2
20260503100219 10 41 1.6 4.8 0.00 0.00 0.00 82 1010.2
20260503081207 11 21 1.6 8.0 0.00 0.00 0.00 81 1010.9
20260503080527 11 44 1.6 1.6 0.00 0.00 0.00 81 1010.9
20260503072623 11 48 1.6 4.8 0.00 0.00 0.00 81 1010.9
20260503071943 11 293 1.6 4.8 0.00 0.00 0.00 80 1010.9
20260503071303 11 28 1.6 4.8 0.00 0.00 0.00 81 1010.9
20260503070623 11 44 1.6 3.2 0.00 0.00 0.00 81 1010.9
20260503055042 11 64 1.6 8.0 0.00 0.00 0.00 81 1011.6
20260503054401 11 266 1.6 3.2 0.00 0.00 0.00 81 1011.6
20260503053722 11 75 3.2 1.6 0.00 0.00 0.00 81 1011.6
20260503052932 11 39 1.6 8.0 0.00 0.00 0.00 81 1011.6
20260503052253 11 41 1.6 0.0 0.00 0.00 0.00 81 1011.6
20260503051434 11 47 1.6 6.4 0.00 0.00 0.00 81 1011.6
20260503050755 11 64 3.2 6.4 0.00 0.00 0.00 81 1011.6
20260503050114 11 48 1.6 4.8 0.00 0.00 0.00 81 1011.6
20260503045435 11 41 1.6 1.6 0.00 0.00 0.00 81 1011.6
20260503044646 11 97 1.6 0.0 0.00 0.00 0.00 81 1011.6
20260503043857 11 46 1.6 4.8 0.00 0.00 0.00 82 1011.6
20260503043217 11 51 1.6 4.8 0.00 0.00 0.00 82 1011.3
20260503042537 11 83 3.2 6.4 0.00 0.00 0.00 81 1011.3
20260503041857 11 58 3.2 4.8 0.00 0.00 0.00 82 1011.3
20260503041217 11 45 1.6 3.2 0.00 0.00 0.00 82 1011.3
20260503040537 11 45 1.6 6.4 0.00 0.00 0.00 82 1011.3
20260503035857 11 231 3.2 6.4 0.00 0.00 0.00 81 1011.3
20260503035217 11 65 1.6 1.6 0.00 0.00 0.00 82 1011.3
20260503034426 11 58 1.6 3.2 0.00 0.00 0.00 82 1010.9
20260503033746 11 84 1.6 4.8 0.00 0.00 0.00 81 1010.9
20260503033106 11 57 1.6 3.2 0.00 0.00 0.00 81 1010.9
20260503032426 11 45 1.6 8.0 0.00 0.00 0.00 81 1010.9
20260503031746 11 65 1.6 8.0 0.00 0.00 0.00 81 1010.9
20260503031106 11 66 3.2 4.8 0.00 0.00 0.00 81 1010.6
20260503030426 11 71 1.6 8.0 0.00 0.00 0.00 80 1010.6
20260503025746 11 80 3.2 8.0 0.00 0.00 0.00 80 1010.6
20260503025106 11 71 3.2 6.4 0.00 0.00 0.00 80 1010.6
20260503024426 11 34 3.2 8.0 0.00 0.00 0.00 79 1010.6
20260503023746 11 75 1.6 12.9 0.00 0.00 0.00 80 1010.6
20260503023106 11 318 4.8 12.9 0.00 0.00 0.00 78 1010.6
20260503022426 11 53 1.6 8.0 0.00 0.00 0.00 78 1010.6
20260503021746 12 45 1.6 4.8 0.00 0.00 0.00 78 1010.6
20260503021106 12 69 1.6 1.6 0.00 0.00 0.00 77 1010.6
20260503020317 12 59 1.6 6.4 0.00 0.00 0.00 78 1010.6
20260503015637 12 47 3.2 6.4 0.00 0.00 0.00 77 1010.6
20260503014957 12 75 1.6 3.2 0.00 0.00 0.00 77 1010.6
20260503014101 12 225 3.2 12.9 0.00 0.00 0.00 76 1010.6
20260503013421 12 164 3.2 8.0 0.00 0.00 0.00 76 1010.6
20260503012741 12 52 4.8 9.7 0.00 0.00 0.00 76 1010.6
20260503012101 12 44 3.2 14.5 0.00 0.00 0.00 77 1010.9
20260503011421 12 148 1.6 1.6 0.00 0.00 0.00 76 1010.6
20260503010631 12 60 3.2 20.9 0.00 0.00 0.00 75 1010.6
20260503005951 12 227 8.0 20.9 0.00 0.00 0.00 74 1010.9
20260503005311 12 238 9.7 22.5 0.00 0.00 0.00 73 1010.9
20260503004631 13 205 4.8 16.1 0.00 0.00 0.00 71 1010.9
20260503003951 13 15 1.6 14.5 0.00 0.00 0.00 71 1010.9
20260503003311 13 140 3.2 22.5 0.00 0.00 0.00 70 1010.9
20260503002631 13 34 1.6 14.5 0.00 0.00 0.00 70 1010.9
20260503001950 13 271 4.8 9.7 0.00 0.00 0.00 67 1010.9
20260503001311 13 277 4.8 3.2 0.00 0.00 0.00 67 1010.9
20260503000410 13 191 4.8 19.3 0.00 0.00 0.00 66 1010.9
20260502235731 14 251 6.4 6.4 0.00 0.00 0.00 64 1010.9
20260502234944 14 64 3.2 8.0 0.00 0.00 0.00 66 1011.3
20260502234304 14 343 1.6 3.2 0.00 0.00 0.00 63 1011.3
20260502233407 14 40 3.2 9.7 0.00 0.00 0.00 64 1011.3
20260502232728 14 353 3.2 11.3 0.00 0.00 0.00 64 1011.3
20260502232047 15 28 4.8 9.7 0.00 0.00 0.00 62 1011.3
20260502230727 14 7 3.2 11.3 0.00 0.00 0.00 64 1011.6
20260502230048 15 336 3.2 3.2 0.00 0.00 0.00 62 1011.6
20260502225149 15 32 4.8 12.9 0.00 0.00 0.00 63 1011.6
20260502224509 14 51 4.8 12.9 0.00 0.00 0.00 64 1011.6
20260502223829 15 80 3.2 9.7 0.00 0.00 0.00 64 1012.0
20260502223149 15 13 1.6 12.9 0.00 0.00 0.00 64 1012.0
20260502222509 15 37 4.8 12.9 0.00 0.00 0.00 63 1012.0
20260502221829 15 34 3.2 9.7 0.00 0.00 0.00 65 1012.3
20260502221149 15 49 4.8 16.1 0.00 0.00 0.00 64 1012.3
20260502220509 15 279 3.2 1.6 0.00 0.00 0.00 64 1012.3
20260502215721 15 310 3.2 14.5 0.00 0.00 0.00 64 1012.3
20260502215041 15 21 4.8 1.6 0.00 0.00 0.00 65 1012.3
20260502214251 15 36 3.2 1.6 0.00 0.00 0.00 65 1012.7
20260502213501 15 6 3.2 11.3 0.00 0.00 0.00 66 1012.3
20260502212821 15 60 3.2 11.3 0.00 0.00 0.00 65 1012.3
20260502212141 15 351 3.2 12.9 0.00 0.00 0.00 64 1012.3
20260502211501 15 73 4.8 16.1 0.00 0.00 0.00 63 1012.7
20260502210821 15 9 3.2 12.9 0.00 0.00 0.00 62 1012.7
20260502210142 15 68 4.8 3.2 0.00 0.00 0.00 64 1012.7
20260502205353 15 29 3.2 12.9 0.00 0.00 0.00 65 1012.7
20260502204713 15 29 4.8 1.6 0.00 0.00 0.00 63 1012.7
20260502203925 15 4 3.2 12.9 0.00 0.00 0.00 66 1012.7
20260502203245 15 29 4.8 19.3 0.00 0.00 0.00 66 1013.0
20260502202605 15 5 1.6 4.8 0.00 0.00 0.00 67 1012.7
20260502201813 15 58 4.8 29.0 0.00 0.00 0.00 68 1013.0
20260502201133 14 17 3.2 12.9 0.00 0.00 0.00 70 1013.0
20260502200453 14 17 3.2 17.7 0.00 0.00 0.00 69 1013.0
20260502195813 15 25 3.2 16.1 0.00 0.00 0.00 68 1013.0
20260502195133 14 7 3.2 9.7 0.00 0.00 0.00 71 1013.0
20260502194453 14 58 3.2 11.3 0.00 0.00 0.00 71 1013.0
20260502193813 14 359 1.6 14.5 0.00 0.00 0.00 72 1013.0
20260502193133 13 33 6.4 14.5 0.00 0.00 0.00 73 1013.0
20260502192453 13 83 3.2 9.7 0.00 0.00 0.00 73 1013.0
20260502191813 13 45 3.2 9.7 0.00 0.00 0.00 76 1013.0
20260502191133 13 71 3.2 11.3 0.00 0.00 0.00 75 1013.0
20260502190453 13 56 8.0 6.4 0.00 0.00 0.00 75 1013.0
20260502185703 12 23 3.2 16.1 0.00 0.00 0.00 78 1013.3
20260502185022 12 53 4.8 16.1 0.00 0.00 0.00 78 1013.3
20260502184343 12 41 4.8 0.0 0.00 0.00 0.00 78 1013.3
20260502183553 12 27 1.6 1.6 0.00 0.00 0.00 78 1013.3
20260502182655 12 74 1.6 11.3 0.00 0.00 0.00 78 1013.0
20260502182016 12 58 3.2 9.7 0.00 0.00 0.00 78 1013.0
20260502181335 12 0 1.6 9.7 0.00 0.00 0.00 77 1013.0